Weather History for Pottstown, PA

Change the Weather History Date:

Tuesday, December 24, 2013

  Actual Average (KRDG) Record (KRDG)
Temperature  
Mean Temperature 31 °F 32 °F  
Max Temperature 37 °F 39 °F 63 °F (1990)
Min Temperature 23 °F 24 °F -1 °F (1989)
Degree Days  
Heating Degree Days 34 33  
Month to date heating degree days 726  
Since 1 July heating degree days 1793  
Cooling Degree Days 0 0  
Month to date cooling degree days 0  
Year to date cooling degree days 896  
Moisture  
Dew Point 19 °F    
Average Humidity 60    
Maximum Humidity 79    
Minimum Humidity 51    
Precipitation  
Precipitation 0.00 in 0.10 in 1.32 in (2008)
Month to date precipitation 2.63  
Year to date precipitation 42.61  
Sea Level Pressure  
Sea Level Pressure 30.24 in    
Wind  
Wind Speed 7 mph (NW)    
Max Wind Speed 16 mph    
Max Gust Speed 26 mph    
Visibility 10 miles    
Events      
T = Trace of Precipitation, MM = Missing Value Source: NWS Daily Summary

Daily Weather History Graph

Daily Weather History Graph

Search for Another Location

Airport:

Trip Planner

Search our weather history database for the weather conditions in past years. The results will help you decide how hot, cold, wet, or windy it might be!

Date:

Astronomy

Dec. 24, 2013 Rise Set
Actual Time 7:22 AM EST 4:41 PM EST
Civil Twilight 6:52 AM EST 5:11 PM EST
Nautical Twilight 6:17 AM EST 5:46 PM EST
Astronomical Twilight 5:44 AM EST 6:19 PM EST
Moon 11:48 PM EST (12/24) 11:15 AM EST (12/24)
Length of Visible Light 10h 19m
Length of Day
9h 18m
Waning Gibbous, 59% of the Moon is Illuminated
Dec 24
Waning Gibbous
Dec 25
Last Quarter
Jan 1
New
Jan 7
First Quarter
Jan 15
Full

Hourly Weather History & Observations

Time (EST) Temp. Windchill Dew Point Humidity Pressure Visibility Wind Dir Wind Speed Gust Speed Precip Events Conditions
12:54 AM 37.0 °F 32.4 °F 28.0 °F 70% 30.19 in 10.0 mi NNW 5.8 mph - N/A   Mostly Cloudy
1:54 AM 36.0 °F 30.3 °F 25.0 °F 64% 30.19 in 10.0 mi NNW 6.9 mph - N/A   Clear
2:54 AM 35.1 °F 30.1 °F 24.1 °F 64% 30.20 in 10.0 mi NNW 5.8 mph - N/A   Clear
3:54 AM 34.0 °F 28.0 °F 23.0 °F 64% 30.20 in 10.0 mi NNW 6.9 mph - N/A   Clear
4:54 AM 33.1 °F 27.7 °F 21.9 °F 64% 30.19 in 10.0 mi North 5.8 mph - N/A   Clear
5:54 AM 30.9 °F 26.2 °F 19.9 °F 64% 30.19 in 10.0 mi NNW 4.6 mph - N/A   Clear
6:54 AM 30.9 °F 26.2 °F 19.0 °F 61% 30.19 in 10.0 mi NW 4.6 mph - N/A   Clear
7:54 AM 28.0 °F 22.8 °F 19.9 °F 72% 30.20 in 10.0 mi NW 4.6 mph - N/A   Clear
8:54 AM 32.0 °F 27.5 °F 19.9 °F 61% 30.21 in 10.0 mi WNW 4.6 mph - N/A   Clear
9:54 AM 35.1 °F 29.3 °F 21.0 °F 57% 30.22 in 10.0 mi NW 6.9 mph - N/A   Clear
10:54 AM 36.0 °F 28.0 °F 19.9 °F 52% 30.20 in 10.0 mi NW 11.5 mph - N/A   Mostly Cloudy
11:54 AM 36.0 °F 29.0 °F 21.0 °F 55% 30.18 in 10.0 mi NW 9.2 mph - N/A   Overcast
12:54 PM 36.0 °F 28.0 °F 21.0 °F 55% 30.17 in 10.0 mi WNW 11.5 mph 21.9 mph N/A   Overcast
1:54 PM 36.0 °F 29.0 °F 21.0 °F 55% 30.16 in 10.0 mi West 9.2 mph - N/A   Overcast
2:54 PM 36.0 °F 29.6 °F 21.9 °F 57% 30.17 in 10.0 mi WNW 8.1 mph 18.4 mph N/A   Overcast
3:54 PM 35.1 °F 27.9 °F 19.9 °F 54% 30.19 in 10.0 mi WNW 9.2 mph - N/A   Overcast
4:54 PM 33.1 °F 26.1 °F 23.0 °F 66% 30.23 in 10.0 mi West 8.1 mph 19.6 mph 0.00 in   Overcast
5:54 PM 30.0 °F 19.1 °F 24.1 °F 79% 30.27 in 10.0 mi WNW 15.0 mph 20.7 mph 0.00 in   Scattered Clouds
6:54 PM 28.9 °F 18.2 °F 15.1 °F 56% 30.31 in 10.0 mi WNW 13.8 mph 26.5 mph N/A   Clear
7:54 PM 27.0 °F 14.7 °F 10.9 °F 51% 30.34 in 10.0 mi WNW 16.1 mph 25.3 mph N/A   Clear
8:54 PM 26.1 °F 16.2 °F 12.0 °F 55% 30.36 in 10.0 mi WNW 10.4 mph - N/A   Clear
9:54 PM 25.0 °F 16.3 °F 10.9 °F 55% 30.38 in 10.0 mi WNW 8.1 mph 18.4 mph N/A   Clear
10:54 PM 25.0 °F 18.1 °F 10.9 °F 55% 30.39 in 10.0 mi West 5.8 mph - N/A   Clear
11:54 PM 23.0 °F 14.7 °F 12.0 °F 63% 30.42 in 10.0 mi WNW 6.9 mph - N/A   Clear